User: anonymous   Login
Location: Starry Hill Observatory
(46.8582°N, 122.3590°W)
Time: 03:19:37
(UTC-07:00)
Language:

Cosmos 1300 Rocket - Orbit

View from above orbital plane
View from above orbital plane
View from above satellite
View from above satellite

Ground track
Ground track

The orbit data is extracted from the following two-line orbital elements,

1 12786U 81082B   16237.18220039  .00000091  00000-0  78276-5 0  9992
2 12786  82.4860 247.6117 0018346 150.9269 209.2973 14.84632770890748
Epoch (UTC): 24 August 2016 04:22:22
Eccentricity: 0.0018346
inclination: 82.4860°
perigee height: 602 km
apogee height: 627 km
right ascension of ascending node: 247.6117°
argument of perigee: 150.9269°
revolutions per day: 14.84632770
mean anomaly at epoch: 209.2973°
orbit number at epoch: 89074

The dashed part of the orbit path shows where the satellite is in the earth's shadow,  

DLR